• In Hungary
  • List of Countries
  • For 7 days
  • Water Temperature
  • Satellite Maps
  • Weather Map
  • News
  • Weather Widgets
  • user-avatar
    Login

    Hourly Weather Caracas

    Today, 24 February, Saturday

    Time Temperature Precipitation Wind Pressure Humidity
    00:00 +15°C° 0.1 mm 2 mps 650 mmHg 94%
    01:00 +15°C° 0.1 mm 2 mps 649 mmHg 94%
    02:00 +15°C° 0 mm 2 mps 649 mmHg 95%
    03:00 +15°C° 0.2 mm 2 mps 649 mmHg 95%
    04:00 +15°C° 0.2 mm 2 mps 649 mmHg 95%
    05:00 +15°C° 0.2 mm 2 mps 649 mmHg 94%
    06:00 +15°C° 0.2 mm 2 mps 649 mmHg 93%
    07:00 +15°C° 0.2 mm 2 mps 649 mmHg 92%
    08:00 +16°C° 0.2 mm 2 mps 650 mmHg 91%
    09:00 +17°C° 0.1 mm 2 mps 650 mmHg 86%
    10:00 +18°C° 0.1 mm 2 mps 651 mmHg 80%
    11:00 +19°C° 0.1 mm 2 mps 651 mmHg 75%
    12:00 +20°C° 0.2 mm 2 mps 651 mmHg 72%
    13:00 +21°C° 0.2 mm 2 mps 651 mmHg 70%
    14:00 +23°C° 0.2 mm 2 mps 650 mmHg 67%
    15:00 +21°C° 0.1 mm 2 mps 650 mmHg 69%
    16:00 +20°C° 0.1 mm 2 mps 649 mmHg 70%
    17:00 +20°C° 0.1 mm 2 mps 649 mmHg 72%
    18:00 +19°C° 0 mm 2 mps 649 mmHg 78%
    19:00 +17°C° 0 mm 2 mps 649 mmHg 83%
    20:00 +16°C° 0 mm 1 mps 649 mmHg 89%
    21:00 +16°C° 0 mm 1 mps 649 mmHg 90%
    22:00 +16°C° 0 mm 1 mps 649 mmHg 91%
    23:00 +15°C° 0 mm 1 mps 650 mmHg 92%

    Tomorrow, 25 February, Sunday

    Time Temperature Precipitation Wind Pressure Humidity
    00:00 +15°C° 0.1 mm 2 mps 650 mmHg 93%
    01:00 +15°C° 0.1 mm 2 mps 649 mmHg 93%
    02:00 +15°C° 0.1 mm 2 mps 649 mmHg 94%
    03:00 +15°C° 0.1 mm 2 mps 649 mmHg 94%
    04:00 +15°C° 0.1 mm 2 mps 649 mmHg 94%
    05:00 +14°C° 0.1 mm 3 mps 649 mmHg 94%
    06:00 +16°C° 0 mm 2 mps 649 mmHg 93%
    07:00 +16°C° 0 mm 2 mps 650 mmHg 92%
    08:00 +16°C° 0 mm 2 mps 650 mmHg 91%
    09:00 +17°C° 0.1 mm 2 mps 651 mmHg 88%
    10:00 +18°C° 0.1 mm 2 mps 651 mmHg 84%
    11:00 +19°C° 0.1 mm 3 mps 652 mmHg 81%
    12:00 +19°C° 0.1 mm 3 mps 651 mmHg 79%
    13:00 +20°C° 0.1 mm 3 mps 651 mmHg 77%
    14:00 +20°C° 0.1 mm 2 mps 650 mmHg 75%
    15:00 +20°C° 0.1 mm 3 mps 650 mmHg 77%
    16:00 +20°C° 0.1 mm 3 mps 649 mmHg 78%
    17:00 +19°C° 0.1 mm 3 mps 649 mmHg 79%
    18:00 +19°C° 0.1 mm 3 mps 649 mmHg 83%
    19:00 +18°C° 0.1 mm 3 mps 649 mmHg 87%
    20:00 +17°C° 0.1 mm 3 mps 649 mmHg 91%
    21:00 +17°C° 0.2 mm 3 mps 650 mmHg 92%
    22:00 +16°C° 0.2 mm 3 mps 650 mmHg 93%
    23:00 +16°C° 0.2 mm 3 mps 651 mmHg 94%

    Day after tomorrow, 26 February, Monday

    Time Temperature Precipitation Wind Pressure Humidity
    00:00 +16°C° 0.3 mm 3 mps 650 mmHg 94%
    01:00 +16°C° 0.3 mm 3 mps 650 mmHg 94%
    02:00 +16°C° 0.3 mm 3 mps 650 mmHg 94%
    03:00 +16°C° 0.3 mm 3 mps 649 mmHg 94%
    04:00 +16°C° 0.3 mm 3 mps 649 mmHg 94%
    05:00 +16°C° 0.3 mm 3 mps 649 mmHg 95%
    06:00 +16°C° 0.3 mm 3 mps 650 mmHg 94%
    07:00 +16°C° 0.3 mm 3 mps 650 mmHg 93%
    08:00 +16°C° 0.3 mm 3 mps 651 mmHg 92%
    09:00 +17°C° 0.1 mm 3 mps 651 mmHg 89%
    10:00 +18°C° 0.1 mm 3 mps 651 mmHg 85%
    11:00 +19°C° 0.1 mm 3 mps 652 mmHg 81%
    12:00 +20°C° 0.2 mm 3 mps 651 mmHg 79%
    13:00 +20°C° 0.2 mm 3 mps 651 mmHg 77%
    14:00 +21°C° 0.2 mm 3 mps 650 mmHg 74%
    15:00 +20°C° 0.1 mm 3 mps 650 mmHg 75%
    16:00 +20°C° 0.1 mm 3 mps 649 mmHg 75%
    17:00 +20°C° 0.1 mm 3 mps 649 mmHg 75%
    18:00 +19°C° 0.1 mm 2 mps 649 mmHg 80%
    19:00 +18°C° 0.1 mm 2 mps 649 mmHg 85%
    20:00 +17°C° 0.1 mm 2 mps 649 mmHg 91%
    21:00 +16°C° 0.1 mm 2 mps 650 mmHg 92%
    22:00 +16°C° 0.1 mm 2 mps 650 mmHg 92%
    23:00 +16°C° 0.1 mm 2 mps 650 mmHg 93%

    27 February, Tuesday

    Time Temperature Precipitation Wind Pressure Humidity
    00:00 +16°C° 0.2 mm 2 mps 650 mmHg 94%
    01:00 +16°C° 0.2 mm 2 mps 649 mmHg 94%
    02:00 +16°C° 0.2 mm 2 mps 649 mmHg 94%
    03:00 +16°C° 0.2 mm 2 mps 649 mmHg 94%
    04:00 +16°C° 0.2 mm 3 mps 649 mmHg 94%
    05:00 +16°C° 0.2 mm 3 mps 649 mmHg 94%
    06:00 +16°C° 0.1 mm 3 mps 649 mmHg 93%
    07:00 +16°C° 0.1 mm 3 mps 650 mmHg 92%
    08:00 +16°C° 0.1 mm 3 mps 650 mmHg 91%
    09:00 +18°C° 0 mm 2 mps 651 mmHg 83%
    10:00 +19°C° 0 mm 2 mps 651 mmHg 76%
    11:00 +21°C° 0 mm 2 mps 652 mmHg 68%
    12:00 +23°C° 0 mm 2 mps 651 mmHg 64%
    13:00 +23°C° 0 mm 2 mps 651 mmHg 60%
    14:00 +24°C° 0 mm 3 mps 650 mmHg 57%
    15:00 +22°C° 0 mm 3 mps 649 mmHg 63%
    16:00 +21°C° 0 mm 3 mps 649 mmHg 68%
    17:00 +20°C° 0 mm 3 mps 648 mmHg 74%
    18:00 +19°C° 0 mm 2 mps 648 mmHg 80%
    19:00 +18°C° 0 mm 2 mps 648 mmHg 85%
    20:00 +17°C° 0 mm 2 mps 648 mmHg 91%
    21:00 +17°C° 0.1 mm 2 mps 649 mmHg 91%
    22:00 +16°C° 0.1 mm 2 mps 649 mmHg 92%
    23:00 +16°C° 0.1 mm 2 mps 649 mmHg 93%

    28 February, Wednesday

    Time Temperature Precipitation Wind Pressure Humidity
    00:00 +16°C° 0.2 mm 2 mps 649 mmHg 93%
    01:00 +16°C° 0.2 mm 2 mps 649 mmHg 93%
    02:00 +16°C° 0.2 mm 2 mps 648 mmHg 94%
    03:00 +16°C° 0.1 mm 2 mps 648 mmHg 94%
    04:00 +16°C° 0.1 mm 2 mps 648 mmHg 94%
    05:00 +16°C° 0.1 mm 2 mps 648 mmHg 94%
    06:00 +16°C° 0.1 mm 2 mps 648 mmHg 93%
    07:00 +16°C° 0.1 mm 2 mps 649 mmHg 92%
    08:00 +16°C° 0.1 mm 2 mps 650 mmHg 91%
    09:00 +17°C° 0.1 mm 2 mps 650 mmHg 87%
    10:00 +18°C° 0.1 mm 2 mps 650 mmHg 83%
    11:00 +19°C° 0.1 mm 2 mps 651 mmHg 79%
    12:00 +20°C° 0.2 mm 2 mps 650 mmHg 76%
    13:00 +21°C° 0.2 mm 2 mps 650 mmHg 73%
    14:00 +21°C° 0.2 mm 2 mps 649 mmHg 70%
    15:00 +21°C° 0.1 mm 2 mps 649 mmHg 71%
    16:00 +20°C° 0.1 mm 3 mps 649 mmHg 71%
    17:00 +20°C° 0.1 mm 3 mps 648 mmHg 72%
    18:00 +19°C° 0 mm 2 mps 648 mmHg 78%
    19:00 +18°C° 0 mm 2 mps 648 mmHg 83%
    20:00 +17°C° 0 mm 2 mps 649 mmHg 89%
    21:00 +16°C° 0 mm 2 mps 649 mmHg 90%
    22:00 +16°C° 0 mm 2 mps 649 mmHg 92%
    23:00 +16°C° 0 mm 2 mps 649 mmHg 93%

    1 March, Thursday

    Time Temperature Precipitation Wind Pressure Humidity
    00:00 +15°C° 0 mm 2 mps 649 mmHg 93%
    01:00 +15°C° 0 mm 2 mps 649 mmHg 93%
    02:00 +15°C° 0 mm 2 mps 648 mmHg 94%
    03:00 +15°C° 0.1 mm 2 mps 648 mmHg 94%
    04:00 +15°C° 0.1 mm 2 mps 648 mmHg 94%
    05:00 +15°C° 0.1 mm 2 mps 648 mmHg 94%
    06:00 +16°C° 0.1 mm 2 mps 649 mmHg 92%
    07:00 +16°C° 0.1 mm 2 mps 649 mmHg 91%
    08:00 +16°C° 0.1 mm 2 mps 650 mmHg 89%
    09:00 +18°C° 0 mm 3 mps 650 mmHg 84%
    10:00 +19°C° 0 mm 3 mps 651 mmHg 79%
    11:00 +20°C° 0 mm 3 mps 652 mmHg 74%
    12:00 +21°C° 0.1 mm 3 mps 651 mmHg 70%
    13:00 +22°C° 0.1 mm 3 mps 651 mmHg 66%
    14:00 +24°C° 0.1 mm 3 mps 650 mmHg 62%
    15:00 +22°C° 0.1 mm 3 mps 650 mmHg 66%
    16:00 +21°C° 0.1 mm 3 mps 649 mmHg 70%
    17:00 +20°C° 0.1 mm 3 mps 648 mmHg 73%
    18:00 +19°C° 0 mm 3 mps 649 mmHg 79%
    19:00 +18°C° 0 mm 3 mps 649 mmHg 84%
    20:00 +17°C° 0 mm 2 mps 649 mmHg 90%
    21:00 +17°C° 0.1 mm 2 mps 649 mmHg 91%
    22:00 +17°C° 0.1 mm 2 mps 649 mmHg 92%
    23:00 +16°C° 0.1 mm 2 mps 650 mmHg 93%
    Show more